timestamp,wind_dir_avg,wind_spd_avg,wind_spd_max_dir,wind_spd_gust,battery_voltage,lat,long
2023-03-27 00:04:01+00:00,356.0,4.71,350.0,5.85,12.41,47.59359,-54.27349
2023-03-27 00:14:01+00:00,22.0,6.34,21.0,7.26,12.33,47.59359,-54.27349
2023-03-27 00:24:01+00:00,24.0,5.88,26.0,6.53,12.33,47.59359,-54.27349
2023-03-27 00:34:01+00:00,12.0,7.3,13.0,8.93,12.33,47.59359,-54.27349
2023-03-27 00:44:01+00:00,15.0,7.72,15.0,8.46,12.33,47.59359,-54.27349
2023-03-27 00:54:01+00:00,18.0,7.96,19.0,8.97,12.33,47.59359,-54.27349
2023-03-27 01:04:01+00:00,20.0,7.82,19.0,8.8,12.33,47.59359,-54.27349
2023-03-27 01:14:01+00:00,24.0,7.59,19.0,8.55,12.25,47.59359,-54.27349
2023-03-27 01:24:01+00:00,25.0,7.07,23.0,7.93,12.25,47.59359,-54.27349
2023-03-27 01:34:01+00:00,27.0,6.75,27.0,7.52,12.25,47.59359,-54.27349
2023-03-27 01:44:01+00:00,30.0,7.86,27.0,9.04,12.25,47.59359,-54.27349
2023-03-27 01:54:01+00:00,26.0,7.33,26.0,8.08,12.25,47.59359,-54.27349
2023-03-27 02:04:01+00:00,29.0,5.79,30.0,6.56,12.25,47.59359,-54.27349
2023-03-27 02:14:01+00:00,31.0,6.82,31.0,7.49,12.25,47.59359,-54.27349
2023-03-27 02:24:01+00:00,25.0,7.19,25.0,8.41,12.25,47.59359,-54.27349
2023-03-27 02:34:01+00:00,22.0,6.94,13.0,8.81,12.25,47.59359,-54.27349
2023-03-27 02:44:01+00:00,28.0,7.17,24.0,8.06,12.25,47.59359,-54.27349
2023-03-27 02:54:01+00:00,20.0,6.88,17.0,7.77,12.25,47.59359,-54.27349
2023-03-27 03:04:01+00:00,32.0,6.73,33.0,7.4,12.25,47.59359,-54.27349
2023-03-27 03:14:00+00:00,28.0,7.78,28.0,9.37,12.25,47.59359,-54.27349
2023-03-27 03:24:00+00:00,38.0,7.57,41.0,8.39,12.25,47.59359,-54.27349
2023-03-27 03:34:00+00:00,28.0,7.69,30.0,8.23,12.25,47.59359,-54.27349
2023-03-27 03:44:00+00:00,35.0,8.18,35.0,9.85,12.25,47.59359,-54.27349
2023-03-27 03:54:00+00:00,27.0,7.97,23.0,9.11,12.25,47.59359,-54.27349
2023-03-27 04:04:00+00:00,18.0,6.65,17.0,7.57,12.25,47.59359,-54.27349
2023-03-27 04:14:01+00:00,25.0,7.62,25.0,8.71,12.17,47.59359,-54.27349
2023-03-27 04:24:01+00:00,17.0,7.52,20.0,8.65,12.17,47.59359,-54.27349
2023-03-27 04:34:01+00:00,20.0,7.51,20.0,8.3,12.17,47.59359,-54.27349
2023-03-27 04:44:01+00:00,21.0,7.93,17.0,8.9,12.17,47.59359,-54.27349
2023-03-27 04:54:01+00:00,27.0,8.11,27.0,9.08,12.17,47.59359,-54.27349
2023-03-27 05:04:01+00:00,33.0,10.15,35.0,11.59,12.17,47.59359,-54.27349
2023-03-27 05:14:00+00:00,26.0,9.31,25.0,10.48,12.17,47.59359,-54.27349
2023-03-27 05:24:00+00:00,26.0,8.59,26.0,9.74,12.17,47.59359,-54.27349
2023-03-27 05:34:00+00:00,18.0,9.15,19.0,9.85,12.17,47.59359,-54.27349
2023-03-27 05:44:00+00:00,24.0,9.78,29.0,11.89,12.17,47.59359,-54.27349
2023-03-27 05:54:00+00:00,22.0,9.14,26.0,10.22,12.17,47.59359,-54.27349
2023-03-27 06:04:00+00:00,25.0,8.73,28.0,10.19,12.17,47.59359,-54.27349
2023-03-27 06:14:00+00:00,29.0,8.29,37.0,9.58,12.17,47.59359,-54.27349
2023-03-27 06:24:00+00:00,19.0,9.51,22.0,10.56,12.17,47.59359,-54.27349
2023-03-27 06:34:00+00:00,11.0,7.97,13.0,9.73,12.17,47.59359,-54.27349
2023-03-27 06:44:00+00:00,8.0,7.96,5.0,9.62,12.17,47.59359,-54.27349
2023-03-27 06:54:00+00:00,7.0,8.79,6.0,10.6,12.17,47.59359,-54.27349
2023-03-27 07:04:00+00:00,9.0,9.75,5.0,11.75,12.17,47.59359,-54.27349
2023-03-27 07:14:00+00:00,12.0,10.47,14.0,12.19,12.09,47.59359,-54.27349
2023-03-27 07:24:00+00:00,2.0,8.96,0.0,9.88,12.09,47.59359,-54.27349
2023-03-27 07:34:00+00:00,2.0,9.37,353.0,11.02,12.09,47.59359,-54.27349
2023-03-27 07:44:00+00:00,4.0,8.67,2.0,10.3,12.09,47.59359,-54.27349
2023-03-27 07:54:00+00:00,9.0,9.3,10.0,11.35,12.09,47.59359,-54.27349
2023-03-27 08:04:00+00:00,2.0,9.81,4.0,12.75,12.09,47.59359,-54.27349
2023-03-27 08:14:00+00:00,353.0,9.49,352.0,11.19,12.09,47.59359,-54.27349
2023-03-27 08:24:00+00:00,348.0,7.94,349.0,9.0,12.09,47.59359,-54.27349
2023-03-27 08:34:00+00:00,352.0,8.64,354.0,9.99,12.09,47.59359,-54.27349
2023-03-27 08:44:00+00:00,356.0,8.99,359.0,10.99,12.09,47.59359,-54.27349
2023-03-27 08:54:00+00:00,348.0,9.85,348.0,10.88,12.09,47.59359,-54.27349
2023-03-27 09:04:00+00:00,345.0,8.55,341.0,9.51,12.09,47.59359,-54.27349
2023-03-27 09:14:01+00:00,352.0,8.94,354.0,10.08,12.09,47.59359,-54.27349
2023-03-27 09:24:01+00:00,354.0,8.59,357.0,9.34,12.09,47.59359,-54.27349
2023-03-27 09:34:01+00:00,351.0,7.93,353.0,9.02,12.09,47.59359,-54.27349
2023-03-27 09:44:01+00:00,352.0,7.38,358.0,8.34,12.09,47.59359,-54.27349
2023-03-27 09:54:01+00:00,346.0,7.45,350.0,8.28,12.09,47.59359,-54.27349
2023-03-27 10:04:01+00:00,348.0,8.84,349.0,9.67,12.09,47.59359,-54.27349
2023-03-27 10:14:00+00:00,358.0,7.28,358.0,8.4,12.09,47.59359,-54.27349
2023-03-27 10:24:00+00:00,359.0,8.31,357.0,9.15,12.09,47.59359,-54.27349
2023-03-27 10:34:00+00:00,348.0,7.69,345.0,9.37,12.09,47.59359,-54.27349
2023-03-27 10:44:00+00:00,356.0,9.55,357.0,10.57,12.09,47.59359,-54.27349
2023-03-27 10:54:00+00:00,349.0,11.12,347.0,12.29,12.09,47.59359,-54.27349
2023-03-27 11:04:00+00:00,348.0,9.55,353.0,11.02,12.09,47.59359,-54.27349
2023-03-27 11:14:00+00:00,346.0,9.24,342.0,10.3,12.81,47.59359,-54.27349
2023-03-27 11:24:00+00:00,352.0,10.19,351.0,10.96,12.81,47.59359,-54.27349
2023-03-27 11:34:00+00:00,355.0,9.83,353.0,11.46,12.81,47.59359,-54.27349
2023-03-27 11:44:00+00:00,354.0,9.09,357.0,10.64,12.81,47.59359,-54.27349
2023-03-27 11:54:00+00:00,347.0,7.67,350.0,8.48,12.81,47.59359,-54.27349
2023-03-27 12:04:00+00:00,352.0,9.23,347.0,10.16,12.81,47.59359,-54.27349
2023-03-27 12:14:00+00:00,359.0,8.57,359.0,9.89,13.68,47.59359,-54.27349
2023-03-27 12:24:00+00:00,357.0,7.7,4.0,8.64,13.68,47.59359,-54.27349
2023-03-27 12:34:00+00:00,359.0,7.69,1.0,9.78,13.68,47.59359,-54.27349
2023-03-27 12:44:00+00:00,354.0,8.19,355.0,9.44,13.68,47.59359,-54.27349
2023-03-27 12:54:00+00:00,350.0,8.18,351.0,9.08,13.68,47.59359,-54.27349
2023-03-27 13:04:00+00:00,351.0,7.53,351.0,8.28,13.68,47.59359,-54.27349
2023-03-27 13:14:00+00:00,354.0,8.06,357.0,9.06,14.4,47.59359,-54.27349
2023-03-27 13:24:00+00:00,353.0,6.16,351.0,6.59,14.4,47.59359,-54.27349
2023-03-27 13:34:00+00:00,352.0,5.83,351.0,7.23,14.4,47.59359,-54.27349
2023-03-27 13:44:00+00:00,358.0,6.04,355.0,6.52,14.4,47.59359,-54.27349
2023-03-27 13:54:00+00:00,354.0,7.73,356.0,8.84,14.4,47.59359,-54.27349
2023-03-27 14:04:00+00:00,348.0,7.67,344.0,8.52,14.4,47.59359,-54.27349
2023-03-27 14:14:00+00:00,3.0,6.67,6.0,7.95,13.68,47.59359,-54.27349
2023-03-27 14:24:00+00:00,2.0,7.82,0.0,8.76,13.68,47.59359,-54.27349
2023-03-27 14:34:00+00:00,1.0,6.87,3.0,8.02,13.68,47.59359,-54.27349
2023-03-27 14:44:00+00:00,6.0,7.77,1.0,9.32,13.68,47.59359,-54.27349
2023-03-27 14:54:00+00:00,2.0,7.28,5.0,8.14,13.68,47.59359,-54.27349
2023-03-27 15:04:00+00:00,359.0,8.07,1.0,9.24,13.68,47.59359,-54.27349
2023-03-27 15:14:00+00:00,355.0,8.16,355.0,9.05,13.76,47.59359,-54.27349
2023-03-27 15:24:00+00:00,349.0,6.82,347.0,7.72,13.76,47.59359,-54.27349
2023-03-27 15:34:00+00:00,352.0,6.92,356.0,8.06,13.76,47.59359,-54.27349
2023-03-27 15:44:00+00:00,349.0,6.13,346.0,6.5,13.76,47.59359,-54.27349
2023-03-27 15:54:00+00:00,347.0,6.84,345.0,7.68,13.76,47.59359,-54.27349
2023-03-27 16:04:00+00:00,350.0,7.57,343.0,8.35,13.76,47.59359,-54.27349
2023-03-27 16:14:00+00:00,352.0,7.12,354.0,7.9,13.92,47.59359,-54.27349
2023-03-27 16:24:00+00:00,350.0,7.13,349.0,7.94,13.92,47.59359,-54.27349
2023-03-27 16:34:00+00:00,351.0,7.6,351.0,8.3,13.92,47.59359,-54.27349
2023-03-27 16:44:00+00:00,349.0,6.14,347.0,6.97,13.92,47.59359,-54.27349
2023-03-27 16:54:00+00:00,348.0,6.65,351.0,7.43,13.92,47.59359,-54.27349
2023-03-27 17:04:00+00:00,348.0,7.2,350.0,7.72,13.92,47.59359,-54.27349
2023-03-27 17:14:00+00:00,351.0,7.52,351.0,8.17,13.6,47.59359,-54.27349
2023-03-27 17:24:00+00:00,0.0,7.01,356.0,8.01,13.6,47.59359,-54.27349
2023-03-27 17:34:00+00:00,356.0,8.68,355.0,9.48,13.6,47.59359,-54.27349
2023-03-27 17:44:00+00:00,350.0,8.49,355.0,10.25,13.6,47.59359,-54.27349
2023-03-27 17:54:00+00:00,356.0,8.4,353.0,9.3,13.6,47.59359,-54.27349
2023-03-27 18:04:00+00:00,7.0,7.15,2.0,8.1,13.6,47.59359,-54.27349
2023-03-27 18:14:01+00:00,3.0,6.92,5.0,8.02,13.68,47.59359,-54.27349
2023-03-27 18:24:01+00:00,6.0,8.07,2.0,9.57,13.68,47.59359,-54.27349
2023-03-27 18:34:01+00:00,5.0,7.45,2.0,8.54,13.68,47.59359,-54.27349
2023-03-27 18:44:01+00:00,1.0,7.71,5.0,8.51,13.68,47.59359,-54.27349
2023-03-27 18:54:01+00:00,359.0,8.55,0.0,9.56,13.68,47.59359,-54.27349
2023-03-27 19:04:01+00:00,1.0,9.35,2.0,10.45,13.68,47.59359,-54.27349
2023-03-27 19:14:00+00:00,2.0,9.69,4.0,10.46,13.68,47.59359,-54.27349
2023-03-27 19:24:00+00:00,359.0,9.71,358.0,10.47,13.68,47.59359,-54.27349
2023-03-27 19:34:00+00:00,4.0,8.0,10.0,8.99,13.68,47.59359,-54.27349
2023-03-27 19:44:00+00:00,3.0,9.32,2.0,10.37,13.68,47.59359,-54.27349
2023-03-27 19:54:00+00:00,354.0,8.9,355.0,9.97,13.68,47.59359,-54.27349
2023-03-27 20:04:00+00:00,359.0,7.68,359.0,8.22,13.68,47.59359,-54.27349
2023-03-27 20:14:00+00:00,359.0,8.01,0.0,9.72,13.68,47.59359,-54.27349
2023-03-27 20:24:00+00:00,358.0,7.97,359.0,8.79,13.68,47.59359,-54.27349
2023-03-27 20:34:00+00:00,353.0,8.33,354.0,9.2,13.68,47.59359,-54.27349
2023-03-27 20:44:00+00:00,4.0,8.1,2.0,9.07,13.68,47.59359,-54.27349
2023-03-27 20:54:00+00:00,10.0,6.71,16.0,7.87,13.68,47.59359,-54.27349
2023-03-27 21:04:00+00:00,10.0,8.6,11.0,10.48,13.68,47.59359,-54.27349
2023-03-27 21:14:01+00:00,18.0,7.34,21.0,8.32,13.29,47.59359,-54.27349
2023-03-27 21:24:01+00:00,10.0,7.82,14.0,9.88,13.29,47.59359,-54.27349
2023-03-27 21:34:01+00:00,6.0,7.99,5.0,9.21,13.29,47.59359,-54.27349
2023-03-27 21:44:01+00:00,8.0,7.25,10.0,8.6,13.29,47.59359,-54.27349
2023-03-27 21:54:01+00:00,18.0,5.66,17.0,6.28,13.29,47.59359,-54.27349
2023-03-27 22:04:01+00:00,1.0,5.32,2.0,6.2,13.29,47.59359,-54.27349
2023-03-27 22:14:01+00:00,0.0,5.64,356.0,6.34,12.73,47.59359,-54.27349
2023-03-27 22:24:01+00:00,357.0,6.02,356.0,6.83,12.73,47.59359,-54.27349
2023-03-27 22:34:01+00:00,343.0,6.95,343.0,7.3,12.73,47.59359,-54.27349
2023-03-27 22:44:01+00:00,345.0,7.1,347.0,7.69,12.73,47.59359,-54.27349
2023-03-27 22:54:01+00:00,349.0,7.98,352.0,9.09,12.73,47.59359,-54.27349
2023-03-27 23:04:01+00:00,358.0,6.87,0.0,7.56,12.73,47.59359,-54.27349
2023-03-27 23:14:00+00:00,355.0,6.94,357.0,7.44,12.33,47.59359,-54.27349
2023-03-27 23:24:00+00:00,351.0,7.92,359.0,9.47,12.33,47.59359,-54.27349
2023-03-27 23:34:00+00:00,353.0,8.18,353.0,9.39,12.33,47.59359,-54.27349
2023-03-27 23:44:00+00:00,352.0,7.39,354.0,8.38,12.33,47.59359,-54.27349
2023-03-27 23:54:00+00:00,345.0,7.94,343.0,9.29,12.33,47.59359,-54.27349
